Home > Time Zones > World Clock > Weather > Spain > Ceuta > Past weeks

Flag for Spain Weather past 2 weeks in Ceuta, Ceuta, Spain

Now
63 °F

Clear.


Feels Like: 63 °F
Forecast: 61 / 69 °F
Wind: 5 mph from Northeast

Location: Gibraltar Airport


UV Index: 7 (High)

Visibility: 5 mi


Pressure: 30.07 "Hg

Humidity: 83%

Dew point: 57 °F

Location of CeutaLocation

Historic Weather in Ceuta

°F

Ceuta temperature yesterday

Maximum temperature yesterday: 70 °F (at 3:50 PM)
Minimum temperature yesterday: 61 °F (at 3:50 AM)
Average temperature yesterday: 65 °F

Past Weeks' High & Low Weather Summary

 TemperatureHumidityPressure
High72 °F (Apr 5, 6:55 PM)100% (Apr 6, 9:50 PM)30.24 "Hg (Apr 6, 9:50 PM)
Low52 °F (Apr 3, 6:25 AM)38% (Apr 8, 1:50 PM)29.62 "Hg (Apr 2, 12:50 PM)
Average62 °F76%30.02 "Hg
* Reported Apr 2 12:50 AM — Apr 17 12:50 AM, Ceuta, Weather by CustomWeather, © 2014

Note: Actual official high and low records may vary slightly from our data, if they occured in-between our weather recording intervals... More about our weather records

Advertising

Historic Weather Conditions — Data for Previous 24 hours

 ConditionsComfort  
Time TempWeatherWind HumidityBarometerVisibility
12:50 AM
Apr 17
63 °FClear.6 mph83%30.07 "HgN/A
11:50 PM
Apr 16
63 °FClear.2 mph83%30.07 "HgN/A
10:50 PM64 °FPassing clouds.1 mph78%30.07 "Hg6 mi
9:50 PM64 °FPartly sunny.1 mph83%30.04 "Hg6 mi
8:50 PM66 °FPartly sunny.2 mph78%30.04 "Hg6 mi
7:50 PM68 °FPartly sunny.2 mph69%30.01 "Hg6 mi
6:50 PM66 °FPartly sunny.6 mph73%30.01 "HgN/A
5:50 PM70 °FPartly sunny.2 mph60%30.04 "HgN/A
4:50 PM68 °FPartly sunny.3 mph64%30.04 "HgN/A
3:50 PM70 °FPartly sunny.7 mph60%30.04 "HgN/A
2:50 PM68 °FPartly sunny.10 mph64%30.07 "HgN/A
1:50 PM68 °FPassing clouds.7 mph69%30.07 "HgN/A
12:50 PM68 °FScattered clouds.2 mph69%30.07 "HgN/A
11:50 AM64 °FPartly sunny.12 mph78%30.07 "HgN/A
10:50 AM64 °FPartly sunny.7 mph73%30.07 "HgN/A
9:50 AM63 °FPartly sunny.7 mph77%30.07 "HgN/A
8:50 AM61 °FScattered clouds.7 mph83%30.04 "HgN/A
7:50 AM61 °FClear.8 mph83%30.04 "Hg10 mi
6:50 AM61 °FClear.9 mph83%30.01 "Hg10 mi
5:50 AM61 °FClear.10 mph83%30.01 "HgN/A
4:50 AM61 °FClear.10 mph77%30.01 "HgN/A
3:50 AM61 °FClear.10 mph83%30.04 "HgN/A
2:50 AM64 °FClear.9 mph68%30.04 "HgN/A
Weather by CustomWeather, © 2014

See weather overview